| time (UTC) | temp F | wind direction | speed knots | gust knots | rain 1hr in | rain 24hr in | rain mn in | humidity % | barometer mb |
| 20260510201549 | 64 | 51 | 0.0 | 3.5 | 0.00 | 0.00 | 0.00 | 45 | 1019.9 |
| 20260510200049 | 64 | 337 | 0.0 | 5.2 | 0.00 | 0.00 | 0.00 | 46 | 1020.1 |
| 20260510194546 | 63 | 29 | 1.7 | 7.8 | 0.00 | 0.00 | 0.00 | 46 | 1020.0 |
| 20260510193047 | 64 | 317 | 0.9 | 4.3 | 0.00 | 0.00 | 0.00 | 47 | 1020.0 |
| 20260510191548 | 65 | 317 | 2.6 | 7.8 | 0.00 | 0.00 | 0.00 | 42 | 1020.1 |
| 20260510190045 | 64 | 71 | 0.9 | 7.0 | 0.00 | 0.00 | 0.00 | 42 | 1019.9 |
| 20260510184542 | 63 | 342 | 0.0 | 5.2 | 0.00 | 0.00 | 0.00 | 44 | 1019.9 |
| 20260510183046 | 62 | 6 | 1.7 | 10.4 | 0.00 | 0.00 | 0.00 | 45 | 1019.7 |
| 20260510181548 | 64 | 331 | 4.3 | 11.3 | 0.00 | 0.00 | 0.00 | 41 | 1019.7 |
| 20260510180042 | 64 | 8 | 5.2 | 11.3 | 0.00 | 0.00 | 0.00 | 40 | 1019.6 |
| 20260510174545 | 64 | 353 | 5.2 | 9.6 | 0.00 | 0.00 | 0.00 | 39 | 1019.6 |
| 20260510173039 | 64 | 68 | 4.3 | 8.7 | 0.00 | 0.00 | 0.00 | 42 | 1019.6 |
| 20260510171535 | 63 | 354 | 0.9 | 8.7 | 0.00 | 0.00 | 0.00 | 43 | 1019.7 |
| 20260510170036 | 63 | 5 | 5.2 | 10.4 | 0.00 | 0.00 | 0.00 | 43 | 1019.8 |
| 20260510164546 | 62 | 331 | 2.6 | 6.1 | 0.00 | 0.00 | 0.00 | 46 | 1019.7 |
| 20260510163031 | 61 | 20 | 2.6 | 7.0 | 0.00 | 0.00 | 0.00 | 45 | 1019.8 |
| 20260510161529 | 62 | 21 | 3.5 | 10.4 | 0.00 | 0.00 | 0.00 | 43 | 1019.6 |
| 20260510160027 | 62 | 46 | 0.9 | 7.0 | 0.00 | 0.00 | 0.00 | 47 | 1019.5 |
| 20260510154526 | 62 | 319 | 3.5 | 10.4 | 0.00 | 0.00 | 0.00 | 49 | 1019.5 |
| 20260510153036 | 61 | 11 | 2.6 | 11.3 | 0.00 | 0.00 | 0.00 | 50 | 1019.6 |
| 20260510151522 | 61 | 63 | 3.5 | 8.7 | 0.00 | 0.00 | 0.00 | 50 | 1019.5 |
| 20260510150021 | 61 | 271 | 2.6 | 7.8 | 0.00 | 0.00 | 0.00 | 52 | 1019.5 |
| 20260510144533 | 61 | 328 | 3.5 | 11.3 | 0.00 | 0.00 | 0.00 | 49 | 1019.3 |
| 20260510143018 | 61 | 34 | 2.6 | 7.8 | 0.00 | 0.00 | 0.00 | 50 | 1019.1 |
| 20260510141516 | 61 | 30 | 5.2 | 8.7 | 0.00 | 0.00 | 0.00 | 50 | 1018.8 |
| 20260510140014 | 60 | 356 | 3.5 | 8.7 | 0.00 | 0.00 | 0.00 | 52 | 1018.6 |
| 20260510134511 | 59 | 56 | 2.6 | 9.6 | 0.00 | 0.00 | 0.00 | 54 | 1018.3 |
| 20260510133013 | 59 | 41 | 2.6 | 7.8 | 0.00 | 0.00 | 0.00 | 55 | 1018.2 |
| 20260510131507 | 58 | 5 | 3.5 | 8.7 | 0.00 | 0.00 | 0.00 | 58 | 1018.0 |
| 20260510130005 | 57 | 29 | 1.7 | 6.1 | 0.00 | 0.00 | 0.00 | 63 | 1017.5 |
| 20260510124503 | 56 | 37 | 1.7 | 5.2 | 0.00 | 0.00 | 0.00 | 67 | 1017.7 |
| 20260510123003 | 55 | 4 | 1.7 | 5.2 | 0.00 | 0.00 | 0.00 | 69 | 1017.6 |
| 20260510121600 | 55 | 8 | 1.7 | 4.3 | 0.00 | 0.00 | 0.00 | 69 | 1017.4 |
| 20260510120056 | 55 | 3 | 0.9 | 2.6 | 0.00 | 0.00 | 0.00 | 68 | 1017.0 |
| 20260510114603 | 0 | 0.0 | 0.0 | 0.00 | 0.00 | 0.00 | 1016.6 | ||
| 20260510113049 | 0 | 0.0 | 0.0 | 0.00 | 0.00 | 0.00 | 1016.5 | ||
| 20260510111543 | 0 | 0.0 | 0.0 | 0.00 | 0.00 | 0.00 | 1016.3 | ||
| 20260510110043 | 0 | 0.0 | 0.0 | 0.00 | 0.00 | 0.00 | 1016.1 | ||
| 20260510104535 | 0 | 0.0 | 0.0 | 0.00 | 0.00 | 0.00 | 1015.7 | ||
| 20260510103039 | 0 | 0.0 | 0.0 | 0.00 | 0.00 | 0.00 | 1015.4 | ||
| 20260510101525 | 0 | 0.0 | 0.0 | 0.00 | 0.00 | 0.00 | 1014.9 | ||
| 20260510100021 | 0 | 0.0 | 0.0 | 0.00 | 0.00 | 0.00 | 1014.8 | ||
| 20260510094518 | 0 | 0.0 | 0.0 | 0.00 | 0.00 | 0.00 | 1014.6 | ||
| 20260510093113 | 57 | 331 | 1.7 | 6.1 | 0.00 | 0.00 | 0.00 | 90 | 1014.5 |
| 20260510091508 | 58 | 22 | 2.6 | 5.2 | 0.00 | 0.00 | 0.00 | 93 | 1014.0 |
| 20260510090008 | 58 | 350 | 0.9 | 3.5 | 0.00 | 0.00 | 0.00 | 94 | 1013.9 |
| 20260510084510 | 58 | 34 | 1.7 | 3.5 | 0.00 | 0.00 | 0.00 | 94 | 1013.7 |
| 20260510083005 | 58 | 31 | 2.6 | 4.3 | 0.00 | 0.00 | 0.00 | 94 | 1013.7 |
| 20260510081503 | 58 | 27 | 0.0 | 2.6 | 0.00 | 0.00 | 0.00 | 93 | 1013.6 |
| 20260510080002 | 58 | 21 | 0.0 | 2.6 | 0.00 | 0.00 | 0.00 | 92 | 1013.5 |
| 20260510074619 | 58 | 49 | 0.0 | 1.7 | 0.00 | 0.00 | 0.00 | 92 | 1013.0 |
| 20260510073057 | 59 | 293 | 0.0 | 0.0 | 0.00 | 0.00 | 0.00 | 91 | 1013.0 |
| 20260510071600 | 59 | 37 | 0.0 | 1.7 | 0.00 | 0.00 | 0.00 | 91 | 1012.7 |
| 20260510070052 | 60 | 30 | 0.0 | 0.0 | 0.00 | 0.00 | 0.00 | 91 | 1013.0 |
| 20260510064608 | 60 | 15 | 0.0 | 0.9 | 0.00 | 0.00 | 0.00 | 91 | 1013.1 |
| 20260510063056 | 60 | 281 | 0.0 | 4.3 | 0.00 | 0.00 | 0.00 | 90 | 1013.0 |
| 20260510061548 | 61 | 48 | 0.9 | 3.5 | 0.00 | 0.00 | 0.00 | 89 | 1013.0 |
| 20260510060055 | 61 | 347 | 1.7 | 5.2 | 0.00 | 0.00 | 0.00 | 89 | 1013.0 |
| 20260510054544 | 61 | 321 | 0.9 | 4.3 | 0.00 | 0.00 | 0.00 | 88 | 1012.7 |
| 20260510053042 | 62 | 356 | 0.0 | 2.6 | 0.00 | 0.00 | 0.00 | 87 | 1012.6 |
| 20260510051551 | 62 | 326 | 0.0 | 0.0 | 0.00 | 0.00 | 0.00 | 85 | 1012.1 |
| 20260510050038 | 62 | 327 | 0.0 | 0.0 | 0.00 | 0.00 | 0.00 | 85 | 1012.0 |
| 20260510044540 | 62 | 322 | 0.0 | 1.7 | 0.00 | 0.01 | 0.00 | 85 | 1011.8 |
| 20260510043039 | 63 | 61 | 0.0 | 0.0 | 0.00 | 0.01 | 0.00 | 82 | 1011.4 |
| 20260510041535 | 63 | 64 | 0.0 | 0.0 | 0.00 | 0.01 | 0.00 | 81 | 1011.1 |
| 20260510040031 | 64 | 24 | 0.0 | 0.0 | 0.00 | 0.01 | 0.00 | 80 | 1011.3 |
| 20260510034529 | 64 | 49 | 0.0 | 1.7 | 0.00 | 0.01 | 0.00 | 78 | 1011.1 |
| 20260510033030 | 65 | 351 | 0.0 | 2.6 | 0.00 | 0.01 | 0.00 | 77 | 1011.0 |
| 20260510031526 | 66 | 317 | 1.7 | 5.2 | 0.00 | 0.01 | 0.00 | 74 | 1011.0 |
| 20260510030025 | 66 | 11 | 1.7 | 4.3 | 0.00 | 0.01 | 0.00 | 72 | 1010.9 |
| 20260510024523 | 67 | 340 | 2.6 | 7.0 | 0.00 | 0.10 | 0.00 | 70 | 1010.6 |
| 20260510023020 | 68 | 332 | 3.5 | 9.6 | 0.00 | 0.10 | 0.00 | 66 | 1010.3 |
| 20260510021517 | 69 | 345 | 4.3 | 12.2 | 0.00 | 0.10 | 0.00 | 63 | 1009.9 |
| 20260510020016 | 71 | 186 | 0.0 | 0.0 | 0.00 | 0.10 | 0.00 | 55 | 1008.6 |
| 20260510014521 | 71 | 186 | 0.0 | 1.7 | 0.00 | 0.36 | 0.00 | 54 | 1008.4 |
| 20260510013015 | 72 | 126 | 0.0 | 0.0 | 0.00 | 0.36 | 0.00 | 54 | 1008.1 |
| 20260510011521 | 73 | 126 | 0.0 | 0.0 | 0.00 | 0.36 | 0.00 | 54 | 1008.0 |
| 20260510010013 | 74 | 125 | 0.0 | 0.0 | 0.00 | 0.36 | 0.00 | 51 | 1007.9 |
| 20260510004513 | 75 | 222 | 0.0 | 0.0 | 0.00 | 0.44 | 0.00 | 50 | 1007.9 |
| 20260510003012 | 76 | 222 | 0.0 | 0.0 | 0.00 | 0.44 | 0.00 | 50 | 1007.9 |
| 20260510001511 | 77 | 222 | 0.0 | 0.0 | 0.00 | 0.44 | 0.00 | 47 | 1007.9 |
| 20260510000010 | 80 | 224 | 0.0 | 0.0 | 0.00 | 0.44 | 0.00 | 44 | 1007.8 |
| 20260509234510 | 80 | 224 | 0.0 | 0.9 | 0.00 | 0.45 | 0.00 | 44 | 1007.7 |
| 20260509233009 | 79 | 64 | 0.0 | 2.6 | 0.00 | 0.45 | 0.00 | 45 | 1007.8 |
| 20260509231509 | 78 | 290 | 0.0 | 0.9 | 0.00 | 0.45 | 0.00 | 41 | 1007.8 |
| 20260509230008 | 79 | 319 | 0.9 | 2.6 | 0.00 | 0.45 | 0.00 | 39 | 1007.8 |
| 20260509224507 | 80 | 299 | 0.9 | 5.2 | 0.00 | 0.46 | 0.00 | 37 | 1007.7 |
| 20260509223006 | 81 | 269 | 2.6 | 8.7 | 0.00 | 0.46 | 0.00 | 34 | 1007.7 |
| 20260509221515 | 82 | 260 | 0.0 | 3.5 | 0.00 | 0.46 | 0.00 | 37 | 1007.8 |
| 20260509220002 | 81 | 308 | 0.0 | 6.1 | 0.00 | 0.46 | 0.00 | 37 | 1007.8 |
| 20260509214502 | 81 | 276 | 0.9 | 9.6 | 0.00 | 0.46 | 0.00 | 37 | 1007.8 |
| 20260509213103 | 81 | 262 | 0.0 | 4.3 | 0.00 | 0.46 | 0.00 | 37 | 1007.9 |
| 20260509211558 | 81 | 264 | 0.0 | 0.9 | 0.00 | 0.46 | 0.00 | 38 | 1008.0 |
| 20260509210101 | 80 | 302 | 2.6 | 7.0 | 0.00 | 0.46 | 0.00 | 36 | 1008.2 |
| 20260509204559 | 80 | 305 | 2.6 | 5.2 | 0.00 | 0.46 | 0.00 | 38 | 1008.3 |
| 20260509203055 | 81 | 268 | 0.9 | 3.5 | 0.00 | 0.46 | 0.00 | 39 | 1008.5 |